{"data":{"norad_id":60054,"intl_designator":"2024-112S","name":"STARLINK-31735","alt_names":[],"object_type":"PAYLOAD","status":"ACTIVE","operator":null,"country":"US","launch_date":"2024-06-08","launch_site_code":"AFWTR","launch_vehicle":null,"mission":null,"orbit_class":"UNKNOWN","rcs_meters":null,"size_class":null,"mass_kg":null,"dimensions":null,"purposes":["comms"],"wikipedia_slug":null,"has_3d_model":false,"image_url":null,"decayed_at":null,"tle_current":{"epoch":"2026-09-21T22:36:33.140736Z","epoch_age_seconds":53091,"freshness":"FRESH","line1":"1 60054U 24112S   26264.94205024  .00000179  00000+0  16439-4 0  9994","line2":"2 60054  53.1601 245.0141 0001550  64.6046 295.5117 15.34385774128667","mean_motion":15.34385774,"eccentricity":0.000155,"inclination_deg":53.1601,"raan_deg":245.0141,"arg_perigee_deg":64.6046,"mean_anomaly_deg":295.5117,"bstar":1.6439e-5,"rev_number":12866,"period_min":93.848628187294,"perigee_km":461.68518641269,"apogee_km":463.80585999488,"semimajor_km":6840.8825232038,"source":"CELESTRAK","updated_at":"2026-09-22T09:00:49.144906Z"}}}